Location: Hartford
(41.7640°N, 72.6860°W)
Time: 05:25:10
(UTC-04:00)

ISS - All Passes

Search period start: 01 April 2015 00:00
Search period end: 11 April 2015 00:00
Orbit: 396 x 405 km, 51.6° (Epoch: 01 April)

Date Brightness Start Highest point End Pass type
(mag) Time Alt. Az. Time Alt. Az. Time Alt. Az.
01 Apr - 00:34:23 10° NW 00:36:34 16° N 00:38:45 10° NNE night (unlit)
01 Apr - 02:11:47 10° NNW 02:13:54 16° N 02:16:01 10° NE night (unlit)
01 Apr - 03:47:47 10° NW 03:50:55 44° NNE 03:54:01 10° ESE visible
01 Apr - 05:24:33 10° W 05:27:09 22° SW 05:29:42 10° S visible
01 Apr - 20:29:35 10° SE 20:30:05 10° SE 20:30:43 10° ESE visible
01 Apr - 22:02:48 10° SW 22:06:04 89° NW 22:09:20 10° NE night (unlit)
01 Apr - 23:40:17 10° WNW 23:42:50 20° NNW 23:45:20 10° NE night (unlit)
02 Apr - 01:18:13 10° NNW 01:20:07 15° N 01:22:02 10° NE night (unlit)
02 Apr - 02:54:26 10° NW 02:57:17 28° NNE 03:00:10 10° E night (unlit)
02 Apr - 04:30:41 10° WNW 04:33:47 43° SW 04:36:51 10° SSE visible
02 Apr - 21:09:28 10° SSW 21:12:36 45° SE 21:15:44 10° ENE visible
02 Apr - 22:46:14 10° W 22:49:06 28° NNW 22:51:58 10° NE night (unlit)
03 Apr - 00:24:22 10° NW 00:26:17 15° N 00:28:12 10° NNE night (unlit)
03 Apr - 02:01:02 10° NW 02:03:34 20° NNE 02:06:07 10° ENE night (unlit)
03 Apr - 03:37:04 10° NW 03:40:19 88° SW 03:43:32 10° SE night (unlit)
03 Apr - 20:16:32 10° S 20:19:10 23° SE 20:21:50 10° E visible
03 Apr - 21:52:17 10° WSW 21:55:25 43° NNW 21:58:33 10° NE visible
03 Apr - 23:30:18 10° NW 23:32:26 16° N 23:34:33 10° NNE night (unlit)
04 Apr - 01:07:34 10° NNW 01:09:45 17° N 01:11:58 10° NE night (unlit)
04 Apr - 02:43:34 10° NW 02:46:44 49° NNE 02:49:53 10° ESE night (unlit)
04 Apr - 04:20:29 10° W 04:22:54 19° SW 04:25:16 10° S night (unlit)
04 Apr - 19:24:29 10° SSE 19:25:46 12° SE 19:27:10 10° ESE daylight
04 Apr - 20:58:31 10° WSW 21:01:47 78° NW 21:05:03 10° NE visible
04 Apr - 22:36:07 10° WNW 22:38:35 19° NNW 22:41:02 10° NNE visible
05 Apr - 00:13:57 10° NNW 00:15:53 15° N 00:17:50 10° NE night (unlit)
05 Apr - 01:50:05 10° NW 01:53:02 30° NNE 01:55:58 10° E night (unlit)
05 Apr - 03:26:26 10° WNW 03:29:27 37° SW 03:32:27 10° SSE night (unlit)
05 Apr - 20:05:01 10° SW 20:08:12 52° SE 20:11:24 10° ENE visible
05 Apr - 21:41:57 10° W 21:44:45 26° NNW 21:47:33 10° NE visible
05 Apr - 23:20:04 10° NW 23:21:58 14° N 23:23:52 10° NE night (unlit)
06 Apr - 00:56:37 10° NW 00:59:13 22° NNE 01:01:50 10° ENE night (unlit)
06 Apr - 02:32:40 10° WNW 02:35:55 77° SW 02:39:08 10° SE night (unlit)
06 Apr - 19:11:53 10° SSW 19:14:39 26° SE 19:17:29 10° ENE daylight
06 Apr - 20:47:52 10° W 20:50:58 39° NNW 20:54:03 10° NE visible
06 Apr - 22:25:56 10° NW 22:28:01 16° N 22:30:04 10° NNE visible
07 Apr - 00:03:04 10° NNW 00:05:20 17° NNE 00:07:36 10° ENE night (unlit)
07 Apr - 01:39:03 10° NW 01:42:15 56° NNE 01:45:26 10° ESE night (unlit)
07 Apr - 03:16:10 10° W 03:18:22 17° SW 03:20:30 10° S night (unlit)
07 Apr - 18:19:27 10° SSE 18:21:09 14° SE 18:22:58 10° E daylight
07 Apr - 19:53:58 10° WSW 19:57:12 69° NW 20:00:28 10° NE visible
07 Apr - 21:31:39 10° WNW 21:34:03 18° NNW 21:36:26 10° NNE visible
07 Apr - 23:09:23 10° NNW 23:11:22 15° N 23:13:21 10° NE visible
08 Apr - 00:45:28 10° NW 00:48:28 33° NNE 00:51:28 10° E night (unlit)
08 Apr - 02:21:53 10° WNW 02:24:50 32° SW 02:27:46 10° SSE night (unlit)
08 Apr - 19:00:18 10° SW 19:03:31 61° SE 19:06:45 10° ENE daylight
08 Apr - 20:37:22 10° WNW 20:40:07 24° NNW 20:42:51 10° NE visible
08 Apr - 22:15:26 10° NW 22:17:20 14° N 22:19:14 10° NE visible
08 Apr - 23:51:54 10° NW 23:54:35 23° NNE 23:57:16 10° ENE night (unlit)
09 Apr - 01:28:00 10° WNW 01:31:13 67° SW 01:34:25 10° SE night (unlit)
09 Apr - 18:06:59 10° SSW 18:09:52 30° SE 18:12:48 10° ENE daylight
09 Apr - 19:43:10 10° W 19:46:13 35° NNW 19:49:16 10° NE daylight
09 Apr - 21:21:16 10° NW 21:23:18 15° N 21:25:19 10° NNE visible
09 Apr - 22:58:16 10° NNW 23:00:36 18° NNE 23:02:56 10° ENE visible
10 Apr - 00:34:14 10° NW 00:37:29 63° NNE 00:40:41 10° ESE night (unlit)
10 Apr - 02:11:35 10° W 02:13:32 15° SW 02:15:24 10° SSW night (unlit)
10 Apr - 17:14:16 10° S 17:16:16 16° SE 17:18:21 10° E daylight
10 Apr - 18:49:07 10° WSW 18:52:22 61° NNW 18:55:36 10° NE daylight
10 Apr - 20:26:54 10° WNW 20:29:14 18° NNW 20:31:33 10° NNE visible
10 Apr - 22:04:31 10° NNW 22:06:32 15° N 22:08:35 10° NE visible
10 Apr - 23:40:34 10° NW 23:43:37 36° NNE 23:46:39 10° E visible
